Tracking 18957 objects as of 22-Jan-2018
HD Live streaming from Space Station
objects crossing your sky now

HOOPOE

Track HOOPOE now!
10-day predictions
HOOPOE is classified as:


NORAD ID: 42718
Int'l Code: 1998-067LZ
Perigee: 377.9 km
Apogee: 383.7 km
Inclination: 51.6 °
Period: 92.0 minutes
Semi major axis: 6751 km
RCS: Unknown
Launch date: November 20, 1998
Source: (TBD)
Launch site: TYURATAM MISSILE AND SPACE COMPLEX (TTMTR)
Uplink (MHz):
Downlink (MHz): 437.740
Beacon (MHz):
Mode: 9600bps BPSK
Call sign: ON01IL
Status: Active

aabbcc
Your satellite tracking list
Your tracking list is empty




NASA's NSSDC Master Catalog

Two Line Element Set (TLE):
1 42718U 98067LZ  18021.43278628  .00020179  00000-0  20766-3 0  9997
2 42718  51.6380  20.9314 0004314  56.6506 303.4902 15.64841765 37947
Source of the keplerian elements: AFSPC